COSMOS 2090

导读

COSMOS 2090是独联体(CIS)于1990年8月8日09:00发射的“宇宙”系列卫星。该系列作为苏联/俄罗斯长期开展空间活动的重要载体,涵盖军事侦察、技术试验、导航科研等多元任务。COSMOS 2090延续系列设计,依托中低轨部署完成既定航天任务,是冷战末期独联体航天体系承接苏联遗产阶段的典型发射任务,为后续空间技术发展积累了宝贵经验。

基本信息
目录编号:
20735
目录名称:
COSMOS 2090
国际标识:
1990-070A
轨道中心:
EARTH
卫星名称:
COSMOS 2090
卫星全名:
--
卫星状态:
在轨 (已飞行13095 天)
发射日期:
1990-08-08 UTC
国别 :
俄罗斯(独联体) (CIS)
星等 :
--
轨道信息
数据来源 国际轨道数据 AOE轨道数据
星历时间 2026-06-15T04:06:46+0800
11小时前
查看轨道信息
2026-06-15T06:00:00+0800
9小时前
查看轨道信息
半长轴 7779.012km 7779.012km
偏心率 0.0015237 0.0015267
轨道倾角 82.567° 82.567°
近地点辐角 72.300° 72.105°
升交点赤经 273.701° 273.651°
平近点角 50.095° 48.317°
近地点 1389.022km 1388.998km
远地点 1412.728km 1412.752km
周期 113.801分钟 113.801分钟
每日圈数 12.65366 12.653659
详细信息
使用方式:
暂无
2D轨道图
3D轨道图
轨道高度分析图
轨道倾角分析图
轨道综合分析图
查看轨道综合分析图